Weather in Horly

Ukraine / Kherson District     46°04′44″N   33°17′47″E
temp.,
°C
wind,
m/s
gust,
m/s
humid.,
%
clouds,
%
prec.,
mm/h
press.,
hPa
HPBL,
m
25 february, thu
thu2523:000se446545 0.0 1037420
02:000ese336246 0.0 1036359
05:000sse446480 0.0 1035268
08:00+1s446289 0.0 1034295
11:00+2sw4569100 0.0 1034295
14:00+4sw4583100 0.2 1033345
17:00+4sw569194 0.0 1031179
20:00+5wsw689491 0.1 1031176
26 february, fri
fri2623:00+5wsw6794100 0.5 1031137
02:00+6w6793100 0.7 1030107
05:00+6w569299 0.0 102965
08:00+6wsw459184 0.0 102843
11:00+6wsw67900 0.0 102794
14:00+7wsw810900 0.0 1025150
17:00+6sw810910 0.0 1023147
20:00+6sw812910 0.0 1023169
27 february, sat
sat2723:00+6sw913920 0.0 1021219
02:00+6wsw812930 0.0 1020218
05:00+6wsw811940 0.0 1018184
08:00+5wsw56941 0.0 101882
11:00+5wnw339259 0.0 101746
14:00+6nw568879 0.1 1016111
17:00+6nw5683100 0.2 1016122
20:00+6nw6880100 0.4 1017171
28 february, sun
sun2823:00+5nw687393 0.0 1017217
02:00+4nw6108996 0.1 1018582
05:00+4nw798684 0.1 1018483
08:00+4nnw898592 0.1 1020687
11:00+3nnw6789100 0.1 1021571
14:00+5nnw577488 0.6 1022338
17:00+5nnw6873100 0.1 1023609
20:00+4nnw5877100 0.2 1025671
1 march, mon
mon123:00+3nnw6779100 0.1 1026487
02:00+3n5682100 0.1 1027460
05:00+2n678788 0.0 1027395
08:00+1nne568972 0.0 1028361
11:00+2nne567789 0.0 1030770
14:00+3nne557294 0.1 1031808
17:00+4n5565100 0.1 10311043
20:00+4nne4564100 0.1 10331117